Погода в Уанкайо

Перу     12°03′30″S   75°12′44″W
темп.,
°C
ветер,
м/с
пор.,
м/с
влажн.,
%
обл.,
%
осадки,
мм/ч
давл.,
гПа
погр.,
м
27 ноября, сб
сб2701:00+7сз2279100 0.1 1017272
04:00+7всв0182100 0.1 101653
07:00+8ю0075100 0.1 1017322
10:00+12зюз1157100 0.2 10151366
13:00+12св3261100 1.6 10121165
16:00+12всв3265100 1.0 1011877
19:00+10ю1177100 2.0 101355
22:00+6з2293100 4.0 1020287
28 ноября, вс
вс2801:00+6с119198 4.5 1018247
04:00+6вюв008896 0.0 1017109
07:00+7с117999 0.1 1018282
10:00+11зюз116291 0.2 10151225
13:00+13св2257100 0.8 10111198
16:00+13вюв3361100 1.1 1009847
19:00+10в1176100 2.4 101360
22:00+7з2290100 1.6 1018300
29 ноября, пн
пн2901:00+7сз2287100 2.2 1017245
04:00+7ссз1184100 0.1 1016168
07:00+8ссз1175100 0.1 1017294
10:00+11зюз215997 0.1 10151299
13:00+13св225694 0.8 10111466
16:00+13св1157100 0.9 1008811
19:00+9св1178100 2.8 101313
22:00+9юв3585100 1.4 1016307
30 ноября, вт
вт3001:00+8вюв2384100 2.8 1015244
04:00+7ссв2286100 1.2 1016152
07:00+8з007899 1.5 1017278
10:00+12зюз2160100 0.2 10151104
13:00+15всв224877 1.1 10091778
16:00+12св4465100 1.9 1008707
19:00+7ююз4493100 6.8 1017377
22:00+5всв118963 2.1 1020211
1 декабря, ср
ср101:00+5св1191100 2.2 101846
04:00+5ссв1190100 0.0 101620
07:00+6ююз008398 0.0 1018237
10:00+12юз1160100 0.1 10141078
13:00+13в3258100 2.1 10111203
16:00+12св2265100 1.5 1010537
19:00+9зюз0179100 2.3 101312
22:00+9сз2383100 1.2 1017139